Regional Weather Roundup
Issued by NWS

Home | Current Version | Previous Version | Text Only | Print | Product List | Glossary On
Versions: 1 2 3 4 5 6 7 8 9 10 11 12 13 14 15 16 17 18 19 20 21 22 23 24 25 26 27 28 29 30 31 32 33 34 35 36 37 38 39 40 41 42 43 44 45 46 47 48 49 50
000
ASUS43 KOAX 290610
RWRNE

WEATHER ROUNDUP FOR NEBRASKA
NATIONAL WEATHER SERVICE OMAHA NE
100 AM CDT SUN MAY 29 2016

NOTES: SATELLITE DATA IS BEING USED TO AUGMENT CLOUD COVER ABOVE
       12000 FEET.
       "FAIR" INDICATES FEW OR NO CLOUDS BELOW 12,000 FEET WITH NO
       SIGNIFICANT WEATHER AND/OR OBSTRUCTIONS TO VISIBILITY.

  * THESE STATIONS DO NOT REPORT WEATHER SUCH AS RAIN...SNOW OR FOG.

NEZ001>004-019>022-054>056-290700-
NEBRASKA PANHANDLE

CITY           SKY/WX    TMP DP  RH WIND       PRES   REMARKS
SCOTTSBLUFF    CLEAR     51  45  79 E7        30.09R
6HR MIN TEMP:  51; 6HR MAX TEMP:  74;

ALLIANCE       CLEAR     44  42  93 CALM      30.08R
6HR MIN TEMP:  43; 6HR MAX TEMP:  64; 6HR PCP:  0.08;

CHADRON        CLEAR     44  42  93 SE5       30.07S
6HR MIN TEMP:  43; 6HR MAX TEMP:  59;

KIMBALL        CLEAR     47  44  87 CALM      30.13R
SIDNEY         PTCLDY    48  46  93 CALM      30.11R
6HR MIN TEMP:  47; 6HR MAX TEMP:  70;

$$

NEZ057>060-069>072-079>082-290700-
SOUTHWEST NEBRASKA

CITY           SKY/WX    TMP DP  RH WIND       PRES   REMARKS
NORTH PLATTE   PTCLDY    54  51  90 CALM      30.04R
6HR MIN TEMP:  54; 6HR MAX TEMP:  74; 6HR PCP:  0.05;

IMPERIAL       CLOUDY    56  51  84 S9        30.06R
6HR MIN TEMP:  56; 6HR MAX TEMP:  74; 6HR PCP:  0.05;

LEXINGTON      CLOUDY    56  52  85 S5        30.06S
MCCOOK         CLOUDY    58  52  80 E5        30.07S
6HR MIN TEMP:  57; 6HR MAX TEMP:  76; 6HR PCP: TRACE;

OGALLALA       CLOUDY    51  48  90 NW3       30.08R
$$

NEZ005>010-023>029-035>040-094-290700-
NORTH CENTRAL NEBRASKA

CITY           SKY/WX    TMP DP  RH WIND       PRES   REMARKS
VALENTINE      CLOUDY    58  52  80 W6        30.03R
6HR MIN TEMP:  58; 6HR MAX TEMP:  74; 6HR PCP:  0.08;

AINSWORTH      CLOUDY    57  54  89 CALM      30.02S
BROKEN BOW     MOCLDY    61  52  72 CALM      30.02F
6HR MIN TEMP:  60; 6HR MAX TEMP:  75;

O`NEILL        PTCLDY    57  56  95 SW7       30.02R
ORD            CLOUDY    57  55  93 SW7       30.02R
6HR MIN TEMP:  57; 6HR MAX TEMP:  74;

THEDFORD       CLOUDY    56  52  85 NE3       30.05F
$$

NEZ041-046>049-061>064-073>077-083>087-290700-
SOUTH CENTRAL NEBRASKA

CITY           SKY/WX    TMP DP  RH WIND       PRES   REMARKS
GRAND ISLAND   MOCLDY    64  56  75 W6G22     30.06R
6HR MIN TEMP:  59; 6HR MAX TEMP:  75;

AURORA         CLOUDY    60  58  92 E3        30.02S
HASTINGS       CLOUDY    60  55  83 NW7       30.04R
6HR MIN TEMP:  59; 6HR MAX TEMP:  75;

HEBRON         CLEAR     60  58  93 CALM      30.02R
HOLDREGE       CLOUDY    61  51  70 NW9       30.08R
KEARNEY *      CLOUDY    64  48  55 NW8       30.06R
YORK           CLEAR     59  57  94 CALM      30.03R
$$

NEZ011>018-030>034-042>045-290700-
NORTHEAST NEBRASKA

CITY           SKY/WX    TMP DP  RH WIND       PRES   REMARKS
NORFOLK        CLEAR     55  53  93 CALM      30.00R
6HR MIN TEMP:  53; 6HR MAX TEMP:  64;

ALBION         MOCLDY    53  51  92 CALM      30.02R
BLAIR          CLEAR     61  56  85 W5        29.99R
FREMONT        CLEAR     57  55  94 NW3       30.00S
TEKAMAH        CLEAR     59  55  87 W7        29.98R
6HR MIN TEMP:  59; 6HR MAX TEMP:  72;

WAYNE          CLEAR     54  53  95 W6        29.99S
$$

NEZ050>053-065>068-078-088>093-290700-
SOUTHEAST NEBRASKA

CITY           SKY/WX    TMP DP  RH WIND       PRES   REMARKS
LINCOLN        CLEAR     59  56  89 CALM      30.01R
6HR MIN TEMP:  59; 6HR MAX TEMP:  76;

OMAHA EPPLEY   CLEAR     61  55  81 W5        29.99R
6HR MIN TEMP:  60; 6HR MAX TEMP:  73;

BEATRICE       CLEAR     61  58  90 CALM      30.01R
FALLS CITY     CLEAR     62  59  90 NW5       30.00R
6HR MIN TEMP:  62; 6HR MAX TEMP:  76;

NEBRASKA CITY  CLEAR     63  57  82 NW3       30.00S
PLATTSMOUTH    CLEAR     62  59  88 NW3       30.00S
$$

NEZ044-045-051>053-067-290700-
OMAHA AREA

CITY           SKY/WX    TMP DP  RH WIND       PRES   REMARKS
OMAHA EPPLEY   CLEAR     61  55  81 W5        29.99R
6HR MIN TEMP:  60; 6HR MAX TEMP:  73;

BLAIR          CLEAR     61  56  85 W5        29.99R
FREMONT        CLEAR     57  55  94 NW3       30.00S
MILLARD        CLEAR     60  57  91 CALM      29.99S
OFFUTT AFB     CLEAR     58  56  94 N1        29.98R
PLATTSMOUTH    CLEAR     62  59  88 NW3       30.00S
WAHOO          FAIR      60  56  87 W3        30.00S
$$



USA.gov is the U.S. government's official web portal to all federal, state and local government web resources and services.